Location: Gleizolles
(44.4833°N, 6.7667°E)
Time: 01:36:13
(UTC+00:00)

S-56A Canister/Altair - Pass Details

Date: 02 July 2024
Orbit: 638 x 2488 km, 38.9° (Epoch: 24 July)

Event Time Altitude Azimuth Distance (km) Brightness Sun altitude
Rises 00:32:50 0° 276° (W) 4,869 11.6 -21.3°
Reaches altitude 10° 00:36:53 10° 261° (W) 4,182 11.0 -21.1°
Enters shadow 00:42:58 20° 228° (SW) 3,790 10.5 -20.8°
Maximum altitude 00:44:34 21° 219° (SW) 3,838 - -20.8°
Drops below altitude 10° 00:53:40 10° 178° (S) 5,015 - -20.3°
Sets 00:59:18 0° 165° (SSE) 6,130 - -19.9°
